Satellite-Ground Cal/Val Region Overpasses Predictions

Prediction of Satellite NPP Overpassing Cal/Val Region: PacNW

Region Location: (Latitude: 10.00, Longitude: 139.50) to (Latitude: 22.70, Longitude: 165.60).

Table of predicted overpasses for the next 14.0 days since TLE Epoch: 2/15/2020
Interval Starting Time Starting Location Ending Time Ending Location
1 02/15/2020 02:45:19 ( 10.55, 158.22) 02/15/2020 02:48:45 ( 22.64, 155.34)
2 02/15/2020 15:17:04 ( 22.66, 155.56) 02/15/2020 15:20:39 ( 10.04, 152.56)
3 02/16/2020 02:26:08 ( 10.02, 163.09) 02/16/2020 02:29:43 ( 22.64, 160.09)
4 02/16/2020 14:58:02 ( 22.66, 160.32) 02/16/2020 15:01:37 ( 10.03, 157.32)
5 02/17/2020 02:09:50 ( 19.60, 165.60) 02/17/2020 02:10:42 ( 22.65, 164.85)
6 02/17/2020 03:48:37 ( 10.03, 142.47) 02/17/2020 03:52:10 ( 22.53, 139.50)
7 02/17/2020 14:39:01 ( 22.65, 165.07) 02/17/2020 14:42:36 ( 10.03, 162.07)
8 02/17/2020 16:20:31 ( 22.65, 139.70) 02/17/2020 16:20:44 ( 21.89, 139.51)
9 02/18/2020 03:29:35 ( 10.03, 147.23) 02/18/2020 03:33:10 ( 22.65, 144.23)
10 02/18/2020 16:01:29 ( 22.65, 144.45) 02/18/2020 16:05:04 ( 10.02, 141.45)
11 02/19/2020 03:10:34 ( 10.03, 151.98) 02/19/2020 03:14:09 ( 22.66, 148.98)
12 02/19/2020 15:42:28 ( 22.64, 149.21) 02/19/2020 15:46:03 ( 10.02, 146.21)
13 02/20/2020 02:51:32 ( 10.04, 156.74) 02/20/2020 02:55:07 ( 22.66, 153.74)
14 02/20/2020 15:23:25 ( 22.70, 153.98) 02/20/2020 15:27:01 ( 10.02, 150.96)
15 02/21/2020 02:32:31 ( 10.04, 161.49) 02/21/2020 02:36:06 ( 22.66, 158.49)
16 02/21/2020 15:04:24 ( 22.69, 158.73) 02/21/2020 15:08:00 ( 10.02, 155.72)
17 02/22/2020 02:14:18 ( 12.87, 165.60) 02/22/2020 02:17:04 ( 22.67, 163.25)
18 02/22/2020 03:54:59 ( 10.05, 140.87) 02/22/2020 03:56:39 ( 15.92, 139.51)
19 02/22/2020 14:45:22 ( 22.69, 163.49) 02/22/2020 14:48:58 ( 10.01, 160.47)
20 02/23/2020 03:35:58 ( 10.05, 145.63) 02/23/2020 03:39:33 ( 22.68, 142.63)
21 02/23/2020 14:29:30 ( 11.59, 165.59) 02/23/2020 14:29:57 ( 10.01, 165.23)
22 02/23/2020 16:07:51 ( 22.68, 142.87) 02/23/2020 16:11:27 ( 10.00, 139.85)
23 02/24/2020 03:16:56 ( 10.00, 150.40) 02/24/2020 03:20:32 ( 22.68, 147.38)
24 02/24/2020 15:48:49 ( 22.68, 147.62) 02/24/2020 15:52:24 ( 10.06, 144.62)
25 02/25/2020 02:57:54 ( 10.01, 155.15) 02/25/2020 03:01:30 ( 22.69, 152.13)
26 02/25/2020 15:29:48 ( 22.67, 152.38) 02/25/2020 15:33:23 ( 10.05, 149.37)
27 02/26/2020 02:38:53 ( 10.01, 159.91) 02/26/2020 02:42:29 ( 22.69, 156.89)
28 02/26/2020 15:10:46 ( 22.67, 157.13) 02/26/2020 15:14:21 ( 10.05, 154.13)
29 02/27/2020 02:19:51 ( 10.02, 164.66) 02/27/2020 02:23:27 ( 22.70, 161.64)
30 02/27/2020 14:51:45 ( 22.66, 161.89) 02/27/2020 14:55:20 ( 10.04, 158.88)
31 02/28/2020 03:42:20 ( 10.03, 144.04) 02/28/2020 03:45:55 ( 22.65, 141.04)
32 02/28/2020 14:33:56 ( 18.37, 165.59) 02/28/2020 14:36:18 ( 10.04, 163.64)


NCC Satellite Cal/Val Overpasses Prediction Service
